OPS 4682 DEB, 38410

Orbit data source: Space-Track

OPS 4682 DEB, 38410 is space debris in LEO originally from a launch on Sat, 03 Apr 1965 UTC launched from the Air Force Western Test Range (AFWTR). Debris objects in space refer to the collection of defunct objects orbiting the Earth. Examples of debris include non-operational satellites, rocket bodies, and fragments generated from explosions, collisions, or faulty payload assembly.

Loading next visibility...
Identifier
38410, 1965-027DP
Orbit
LEO
Country
Flag of USUS
Related business
Manufacturer
Unknown
Mission
Spacecraft
Bus & Motor
Unknown
Mass
Unknown
Launch date (UTC)
1965-04-03 (61 years ago)
Launch vehicle
Unknown
Launch site
Air Force Western Test Range (AFWTR)
Object type
Payload
Rocket body
Debris
Shape & HBR
Unknown shape, 0.1 m
Radar Cross Section
Small (<0.1 m²)

Expand to show TLE details & history
Last TLE update: 2 days ago

TLE from 2 days ago
0 OPS 4682 DEB
1 38410U 65027DP  25301.46799726  .00000694  00000-0  23615-2 0  9995
2 38410  90.2447   5.6415 0030916   0.8161 359.3005 12.97466788600953
Epoch: 2025-10-28T11:13Z
TLE epoch observation values (Epoch: 2025-10-28T11:13:54.963Z)
Latitude
0.00001°
Longitude
160.10743°
Altitude
1,251.254 km
Speed
7.241 km/s
True Right ascension
00h 22m 33s
True Declination
0° 00' 00"
Sunlit
Object was in full shadow at epoch
Visualization orbit readout
Latitude
Unknown
Longitude
Unknown
Altitude
Unknown
Speed
Unknown
Apparent Right ascension
Unknown
Apparent Declination
Unknown
Sunlit
N/A
Visualization observer readout
Local Sidereal Time
22:45:46
Azimuth
Unknown
Elevation
Unknown
Doppler factor
Unknown
Orbital elements
Apogee altitude
1,292.801 km
Perigee altitude
1,245.516 km
Semi-major axis
7,647.296 km
Eccentricity
0.00309
Inclination
90.2447°
RAAN
5.6415°
Arg. of periapsis
0.8161°
True anomaly
359.29616°
Mean anomaly
359.3005°
Eccentric anomaly
359.29833°
Mean motion
3.2455 °/min
Orbital period
110.92 mins
BSTAR
0.0023615
Loading maneuver chart data...
Computing Atmospheric mass density...
Loading historical data...
Loading historical data...
Loading historical data...
Loading historical data...
Loading historical data...
Loading historical data...
Loading historical data...

Documentation

Showing up to 5 results
|